カタログに戻る

COSMOS 2605

運用中軍事PO
NORAD 67679·PAYLOAD·🇷🇺 Russia

打ち上げ Feb 5, 2026 から Plesetsk Cosmodrome

Loading…

次のパス (今後24時間)

TLE

最新Source: Space-Track

元期: Sep 14, 2026, 14:19 UTC

1 67679U 26023F   26257.59656094  .00008508  00000-0  32277-3 0  9999
2 67679  96.6125 311.4028 0020551 163.9272 196.2625 15.26855895 33638

AllMySatでCOSMOS 2605をリアルタイム追跡

Download on the App Store